This is the latest recevied weather packets stored in our database for station/object AJ7DN. If no packets are shown the sender has not sent any weather packets the latest 1 day(s).
| Time | Temp. | Humidity | Pressure | Rain* | Wind** | Luminosity | Snow |
|---|---|---|---|---|---|---|---|
| 1778026139 | 19.44° C | 64% | 1019.8 hPa | 0 mm | 0.45 m/s, 141° | 194 W/m² | - |
| 1778025837 | 19.44° C | 65% | 1019.7 hPa | 0 mm | 0 m/s | 227 W/m² | - |
| 1778025534 | 18.89° C | 66% | 1019.7 hPa | 0 mm | 0 m/s | 264 W/m² | - |
| 1778025231 | 19.44° C | 65% | 1019.8 hPa | 0 mm | 0 m/s | 168 W/m² | - |
| 1778024928 | 19.44° C | 64% | 1020 hPa | 0 mm | 0 m/s | 270 W/m² | - |
| 1778024626 | 19.44° C | 64% | 1020.1 hPa | 0 mm | 0 m/s | 182 W/m² | - |
| 1778024322 | 18.89° C | 66% | 1020 hPa | 0 mm | 0 m/s | 256 W/m² | - |
| 1778024020 | 18.33° C | 67% | 1020.2 hPa | 0 mm | 0 m/s | 209 W/m² | - |
| 1778023718 | 18.89° C | 67% | 1020.1 hPa | 0 mm | 0 m/s | 170 W/m² | - |
| 1778023415 | 18.33° C | 68% | 1020.2 hPa | 0 mm | 0 m/s | 174 W/m² | - |
| 1778023112 | 18.33° C | 68% | 1020.4 hPa | 0 mm | 0 m/s | 161 W/m² | - |
| 1778022810 | 17.78° C | 70% | 1020.1 hPa | 0 mm | 0 m/s | 165 W/m² | - |
| 1778022507 | 17.78° C | 69% | 1020.2 hPa | 0 mm | 0 m/s | 155 W/m² | - |
| 1778022204 | 17.78° C | 69% | 1020 hPa | 0 mm | 0 m/s | 148 W/m² | - |
| 1778021901 | 18.33° C | 68% | 1020.3 hPa | 0 mm | 0 m/s | 145 W/m² | - |
| 1778021598 | 18.33° C | 68% | 1020.2 hPa | 0 mm | 0 m/s | 148 W/m² | - |
| 1778021293 | 17.78° C | 69% | 1020.4 hPa | 0 mm | 0 m/s | 156 W/m² | - |
| 1778020991 | 18.33° C | 67% | 1020.3 hPa | 0 mm | 0.45 m/s, 12° | 154 W/m² | - |
| 1778020688 | 18.33° C | 68% | 1020.2 hPa | 0 mm | 0 m/s | 155 W/m² | - |
| 1778020385 | 18.33° C | 68% | 1020.3 hPa | 0 mm | 0.45 m/s, 72° | 153 W/m² | - |
| 1778020081 | 18.33° C | 68% | 1020.6 hPa | 0 mm | 0 m/s | 149 W/m² | - |
| 1778019777 | 17.78° C | 68% | 1020.5 hPa | 0 mm | 0 m/s | 168 W/m² | - |
| 1778019475 | 17.78° C | 69% | 1020.3 hPa | 0 mm | 0 m/s | 168 W/m² | - |
| 1778019171 | 17.78° C | 69% | 1020.6 hPa | 0 mm | 0 m/s | 156 W/m² | - |
| 1778018868 | 17.78° C | 69% | 1020.5 hPa | 0 mm | 0.45 m/s, 81° | 152 W/m² | - |
* Rain latest hour (hover to see other rain measurements)
** Current wind speed in m/s (hover to see current wind gust speed)